Time,TemperatureF,DewpointF,PressureIn,WindDirection,WindDirectionDegrees,WindSpeedMPH,WindSpeedGustMPH,Humidity,HourlyPrecipIn,Conditions,Clouds,dailyrainin,SoftwareType,DateUTC
2013-02-14 00:00:00,21.0,17.0,-100.00,North,-999,-999.0,-999.0,84,-99.99,,,-99.99,,2013-02-14 07:00:00,
2013-02-14 00:32:00,21.0,17.0,-100.00,North,-999,-999.0,-999.0,84,-99.99,,,-99.99,,2013-02-14 07:32:00,
2013-02-14 00:42:00,21.0,17.0,-100.00,North,-999,-999.0,-999.0,84,-99.99,,,-99.99,,2013-02-14 07:42:00,
2013-02-14 00:52:00,21.0,17.0,-100.00,North,-999,-999.0,-999.0,84,-99.99,,,-99.99,,2013-02-14 07:52:00,
2013-02-14 01:00:00,21.0,17.0,-100.00,North,-999,-999.0,-999.0,82,-99.99,,,-99.99,,2013-02-14 08:00:00,
2013-02-14 01:32:00,21.0,17.0,-100.00,North,-999,-999.0,-999.0,82,-99.99,,,-99.99,,2013-02-14 08:32:00,
2013-02-14 01:43:00,21.0,17.0,-100.00,North,-999,-999.0,-999.0,82,-99.99,,,-99.99,,2013-02-14 08:43:00,
2013-02-14 01:52:00,21.0,17.0,-100.00,North,-999,-999.0,-999.0,82,-99.99,,,-99.99,,2013-02-14 08:52:00,
2013-02-14 02:00:00,21.0,16.0,-100.00,North,-999,-999.0,-999.0,83,-99.99,,,-99.99,,2013-02-14 09:00:00,
2013-02-14 02:32:00,21.0,16.0,-100.00,North,-999,-999.0,-999.0,83,-99.99,,,-99.99,,2013-02-14 09:32:00,
2013-02-14 02:42:00,21.0,16.0,-100.00,North,-999,-999.0,-999.0,83,-99.99,,,-99.99,,2013-02-14 09:42:00,
2013-02-14 02:52:00,21.0,16.0,-100.00,North,-999,-999.0,-999.0,83,-99.99,,,-99.99,,2013-02-14 09:52:00,
2013-02-14 03:00:00,20.0,19.0,-100.00,North,-999,-999.0,-999.0,93,-99.99,,,-99.99,,2013-02-14 10:00:00,
2013-02-14 03:32:00,20.0,19.0,-100.00,North,-999,-999.0,-999.0,93,-99.99,,,-99.99,,2013-02-14 10:32:00,
2013-02-14 03:42:00,20.0,19.0,-100.00,North,-999,-999.0,-999.0,93,-99.99,,,-99.99,,2013-02-14 10:42:00,
2013-02-14 03:52:00,20.0,19.0,-100.00,North,-999,-999.0,-999.0,93,-99.99,,,-99.99,,2013-02-14 10:52:00,
2013-02-14 05:00:00,19.0,17.0,-100.00,North,-999,-999.0,-999.0,90,-99.99,,,-99.99,,2013-02-14 12:00:00,
2013-02-14 05:32:00,19.0,17.0,-100.00,North,-999,-999.0,-999.0,90,-99.99,,,-99.99,,2013-02-14 12:32:00,
2013-02-14 05:42:00,19.0,17.0,-100.00,North,-999,-999.0,-999.0,90,-99.99,,,-99.99,,2013-02-14 12:42:00,
2013-02-14 05:53:00,19.0,17.0,-100.00,North,-999,-999.0,-999.0,90,-99.99,,,-99.99,,2013-02-14 12:53:00,
2013-02-14 06:00:00,19.0,16.0,-100.00,North,-999,-999.0,-999.0,90,-99.99,,,-99.99,,2013-02-14 13:00:00,
2013-02-14 06:32:00,19.0,16.0,-100.00,North,-999,-999.0,-999.0,90,-99.99,,,-99.99,,2013-02-14 13:32:00,
2013-02-14 06:42:00,19.0,16.0,-100.00,North,-999,-999.0,-999.0,90,-99.99,,,-99.99,,2013-02-14 13:42:00,
2013-02-14 06:51:00,19.0,16.0,-100.00,North,-999,-999.0,-999.0,90,-99.99,,,-99.99,,2013-02-14 13:51:00,
2013-02-14 07:00:00,18.0,16.0,-100.00,North,-999,-999.0,-999.0,91,-99.99,,,-99.99,,2013-02-14 14:00:00,
2013-02-14 07:32:00,18.0,16.0,-100.00,North,-999,-999.0,-999.0,91,-99.99,,,-99.99,,2013-02-14 14:32:00,
2013-02-14 07:42:00,18.0,16.0,-100.00,North,-999,-999.0,-999.0,91,-99.99,,,-99.99,,2013-02-14 14:42:00,
2013-02-14 07:52:00,18.0,16.0,-100.00,North,-999,-999.0,-999.0,91,-99.99,,,-99.99,,2013-02-14 14:52:00,
2013-02-14 08:00:00,18.0,16.0,-100.00,North,-999,-999.0,-999.0,92,-99.99,,,-99.99,,2013-02-14 15:00:00,
2013-02-14 08:32:00,18.0,16.0,-100.00,North,-999,-999.0,-999.0,92,-99.99,,,-99.99,,2013-02-14 15:32:00,
2013-02-14 08:42:00,18.0,16.0,-100.00,North,-999,-999.0,-999.0,92,-99.99,,,-99.99,,2013-02-14 15:42:00,
2013-02-14 08:52:00,18.0,16.0,-100.00,North,-999,-999.0,-999.0,92,-99.99,,,-99.99,,2013-02-14 15:52:00,
2013-02-14 09:00:00,20.0,16.0,-100.00,North,-999,-999.0,-999.0,85,-99.99,,,-99.99,,2013-02-14 16:00:00,
2013-02-14 09:32:00,20.0,16.0,-100.00,North,-999,-999.0,-999.0,85,-99.99,,,-99.99,,2013-02-14 16:32:00,
2013-02-14 09:42:00,20.0,16.0,-100.00,North,-999,-999.0,-999.0,85,-99.99,,,-99.99,,2013-02-14 16:42:00,
2013-02-14 09:52:00,20.0,16.0,-100.00,North,-999,-999.0,-999.0,85,-99.99,,,-99.99,,2013-02-14 16:52:00,
2013-02-14 10:00:00,23.0,16.0,-100.00,North,-999,-999.0,-999.0,76,-99.99,,,-99.99,,2013-02-14 17:00:00,
2013-02-14 10:32:00,23.0,16.0,-100.00,North,-999,-999.0,-999.0,76,-99.99,,,-99.99,,2013-02-14 17:32:00,
2013-02-14 10:42:00,23.0,16.0,-100.00,North,-999,-999.0,-999.0,76,-99.99,,,-99.99,,2013-02-14 17:42:00,
2013-02-14 10:52:00,23.0,16.0,-100.00,North,-999,-999.0,-999.0,76,-99.99,,,-99.99,,2013-02-14 17:52:00,
2013-02-14 11:00:00,25.0,15.0,-100.00,North,-999,-999.0,-999.0,67,-99.99,,,-99.99,,2013-02-14 18:00:00,
2013-02-14 11:32:00,25.0,15.0,-100.00,North,-999,-999.0,-999.0,67,-99.99,,,-99.99,,2013-02-14 18:32:00,
2013-02-14 11:42:00,25.0,15.0,-100.00,North,-999,-999.0,-999.0,67,-99.99,,,-99.99,,2013-02-14 18:42:00,
2013-02-14 11:52:00,25.0,15.0,-100.00,North,-999,-999.0,-999.0,67,-99.99,,,-99.99,,2013-02-14 18:52:00,
2013-02-14 12:00:00,26.0,14.0,-100.00,North,-999,-999.0,-999.0,60,-99.99,,,-99.99,,2013-02-14 19:00:00,
2013-02-14 12:32:00,26.0,14.0,-100.00,North,-999,-999.0,-999.0,60,-99.99,,,-99.99,,2013-02-14 19:32:00,
2013-02-14 12:42:00,26.0,14.0,-100.00,North,-999,-999.0,-999.0,60,-99.99,,,-99.99,,2013-02-14 19:42:00,
2013-02-14 12:52:00,26.0,14.0,-100.00,North,-999,-999.0,-999.0,60,-99.99,,,-99.99,,2013-02-14 19:52:00,
2013-02-14 13:00:00,26.0,14.0,-100.00,North,-999,-999.0,-999.0,59,-99.99,,,-99.99,,2013-02-14 20:00:00,
2013-02-14 13:32:00,26.0,14.0,-100.00,North,-999,-999.0,-999.0,59,-99.99,,,-99.99,,2013-02-14 20:32:00,
2013-02-14 13:42:00,26.0,14.0,-100.00,North,-999,-999.0,-999.0,59,-99.99,,,-99.99,,2013-02-14 20:42:00,
2013-02-14 13:52:00,26.0,14.0,-100.00,North,-999,-999.0,-999.0,59,-99.99,,,-99.99,,2013-02-14 20:52:00,
2013-02-14 14:00:00,26.0,13.0,-100.00,North,-999,-999.0,-999.0,56,-99.99,,,-99.99,,2013-02-14 21:00:00,
2013-02-14 14:32:00,26.0,13.0,-100.00,North,-999,-999.0,-999.0,56,-99.99,,,-99.99,,2013-02-14 21:32:00,
2013-02-14 14:42:00,26.0,13.0,-100.00,North,-999,-999.0,-999.0,56,-99.99,,,-99.99,,2013-02-14 21:42:00,
2013-02-14 14:52:00,26.0,13.0,-100.00,North,-999,-999.0,-999.0,56,-99.99,,,-99.99,,2013-02-14 21:52:00,
2013-02-14 15:00:00,26.0,12.0,-100.00,North,-999,-999.0,-999.0,56,-99.99,,,-99.99,,2013-02-14 22:00:00,
2013-02-14 15:32:00,26.0,12.0,-100.00,North,-999,-999.0,-999.0,56,-99.99,,,-99.99,,2013-02-14 22:32:00,
2013-02-14 15:42:00,26.0,12.0,-100.00,North,-999,-999.0,-999.0,56,-99.99,,,-99.99,,2013-02-14 22:42:00,
2013-02-14 15:52:00,26.0,12.0,-100.00,North,-999,-999.0,-999.0,56,-99.99,,,-99.99,,2013-02-14 22:52:00,
2013-02-14 16:00:00,22.0,12.0,-100.00,North,-999,-999.0,-999.0,62,-99.99,,,-99.99,,2013-02-14 23:00:00,
2013-02-14 16:32:00,22.0,12.0,-100.00,North,-999,-999.0,-999.0,62,-99.99,,,-99.99,,2013-02-14 23:32:00,
2013-02-14 16:42:00,22.0,12.0,-100.00,North,-999,-999.0,-999.0,62,-99.99,,,-99.99,,2013-02-14 23:42:00,
2013-02-14 16:52:00,22.0,12.0,-100.00,North,-999,-999.0,-999.0,62,-99.99,,,-99.99,,2013-02-14 23:52:00,
2013-02-14 17:00:00,21.0,11.0,-100.00,North,-999,-999.0,-999.0,65,-99.99,,,-99.99,,2013-02-15 00:00:00,
2013-02-14 17:32:00,21.0,11.0,-100.00,North,-999,-999.0,-999.0,65,-99.99,,,-99.99,,2013-02-15 00:32:00,
2013-02-14 17:42:00,21.0,11.0,-100.00,North,-999,-999.0,-999.0,65,-99.99,,,-99.99,,2013-02-15 00:42:00,
2013-02-14 17:52:00,21.0,11.0,-100.00,North,-999,-999.0,-999.0,65,-99.99,,,-99.99,,2013-02-15 00:52:00,
2013-02-14 18:00:00,19.0,13.0,-100.00,North,-999,-999.0,-999.0,77,-99.99,,,-99.99,,2013-02-15 01:00:00,
2013-02-14 18:32:00,19.0,13.0,-100.00,North,-999,-999.0,-999.0,77,-99.99,,,-99.99,,2013-02-15 01:32:00,
2013-02-14 18:42:00,19.0,13.0,-100.00,North,-999,-999.0,-999.0,77,-99.99,,,-99.99,,2013-02-15 01:42:00,
2013-02-14 18:52:00,19.0,13.0,-100.00,North,-999,-999.0,-999.0,77,-99.99,,,-99.99,,2013-02-15 01:52:00,
2013-02-14 19:00:00,15.0,13.0,-100.00,North,-999,-999.0,-999.0,89,-99.99,,,-99.99,,2013-02-15 02:00:00,
2013-02-14 19:32:00,15.0,13.0,-100.00,North,-999,-999.0,-999.0,89,-99.99,,,-99.99,,2013-02-15 02:32:00,
2013-02-14 19:42:00,15.0,13.0,-100.00,North,-999,-999.0,-999.0,89,-99.99,,,-99.99,,2013-02-15 02:42:00,
2013-02-14 19:52:00,15.0,13.0,-100.00,North,-999,-999.0,-999.0,89,-99.99,,,-99.99,,2013-02-15 02:52:00,
2013-02-14 20:00:00,13.0,9.0,-100.00,North,-999,-999.0,-999.0,84,-99.99,,,-99.99,,2013-02-15 03:00:00,
2013-02-14 20:32:00,13.0,9.0,-100.00,North,-999,-999.0,-999.0,84,-99.99,,,-99.99,,2013-02-15 03:32:00,
2013-02-14 20:42:00,13.0,9.0,-100.00,North,-999,-999.0,-999.0,84,-99.99,,,-99.99,,2013-02-15 03:42:00,
2013-02-14 20:52:00,13.0,9.0,-100.00,North,-999,-999.0,-999.0,84,-99.99,,,-99.99,,2013-02-15 03:52:00,
2013-02-14 21:00:00,13.0,11.0,-100.00,North,-999,-999.0,-999.0,92,-99.99,,,-99.99,,2013-02-15 04:00:00,
2013-02-14 21:32:00,13.0,11.0,-100.00,North,-999,-999.0,-999.0,92,-99.99,,,-99.99,,2013-02-15 04:32:00,
2013-02-14 21:42:00,13.0,11.0,-100.00,North,-999,-999.0,-999.0,92,-99.99,,,-99.99,,2013-02-15 04:42:00,
2013-02-14 21:52:00,13.0,11.0,-100.00,North,-999,-999.0,-999.0,92,-99.99,,,-99.99,,2013-02-15 04:52:00,
2013-02-14 22:00:00,14.0,11.0,-100.00,North,-999,-999.0,-999.0,88,-99.99,,,-99.99,,2013-02-15 05:00:00,
2013-02-14 22:32:00,14.0,11.0,-100.00,North,-999,-999.0,-999.0,88,-99.99,,,-99.99,,2013-02-15 05:32:00,
2013-02-14 22:42:00,14.0,11.0,-100.00,North,-999,-999.0,-999.0,88,-99.99,,,-99.99,,2013-02-15 05:42:00,
2013-02-14 22:52:00,14.0,11.0,-100.00,North,-999,-999.0,-999.0,88,-99.99,,,-99.99,,2013-02-15 05:52:00,
2013-02-14 23:00:00,13.0,8.0,-100.00,North,-999,-999.0,-999.0,78,-99.99,,,-99.99,,2013-02-15 06:00:00,
2013-02-14 23:32:00,13.0,8.0,-100.00,North,-999,-999.0,-999.0,78,-99.99,,,-99.99,,2013-02-15 06:32:00,
2013-02-14 23:42:00,13.0,8.0,-100.00,North,-999,-999.0,-999.0,78,-99.99,,,-99.99,,2013-02-15 06:42:00,
2013-02-14 23:52:00,13.0,8.0,-100.00,North,-999,-999.0,-999.0,78,-99.99,,,-99.99,,2013-02-15 06:52:00,